Location: Unspecified
(0.0000°N, 0.0000°E)
Time: 22:19:40
(UTC+00:00)

A-11 Canister half - All Passes

Search period start: 17 October 2017 00:00
Search period end: 27 October 2017 00:00
Orbit: 1515 x 1685 km, 47.2° (Epoch: 16 October)

Date Brightness Start Highest point End Pass type
(mag) Time Alt. Az. Time Alt. Az. Time Alt. Az.
17 Oct - 05:15:44 10° SSW 05:25:22 47° SE 05:34:48 10° ENE visible
17 Oct - 07:21:02 10° WSW 07:30:14 40° NW 07:39:14 10° NNE daylight
17 Oct - 16:05:19 10° N 16:10:54 17° NE 16:16:30 10° E daylight
17 Oct - 18:06:34 10° NW 18:15:49 88° SW 18:25:18 10° SE visible
17 Oct - 20:15:35 10° W 20:20:56 16° SW 20:26:25 10° S visible
18 Oct - 04:52:56 10° SSW 05:02:25 43° SE 05:11:43 10° ENE visible
18 Oct - 06:57:52 10° WSW 07:07:17 43° NW 07:16:30 10° NNE daylight
18 Oct - 15:42:58 10° NNE 15:47:57 15° NE 15:52:54 10° E daylight
18 Oct - 17:43:41 10° NW 17:52:56 86° NE 18:02:23 10° SE daylight
18 Oct - 19:52:04 10° W 19:57:58 18° SW 20:03:59 10° S visible
19 Oct - 04:30:10 10° SSW 04:39:27 40° SE 04:48:35 10° ENE visible
19 Oct - 06:34:45 10° WSW 06:44:21 47° NW 06:53:44 10° NNE daylight
19 Oct - 15:20:45 10° NNE 15:24:58 14° NE 15:29:11 10° ENE daylight
19 Oct - 17:20:49 10° NW 17:30:03 79° NE 17:39:27 10° SE daylight
19 Oct - 19:28:40 10° W 19:35:00 20° SW 19:41:29 10° S visible
20 Oct - 04:07:25 10° SSW 04:16:30 36° SE 04:25:26 10° ENE visible
20 Oct - 06:11:40 10° WSW 06:21:24 51° NW 06:30:58 10° NNE daylight
20 Oct - 14:58:44 10° NNE 15:01:59 12° NE 15:05:15 10° ENE daylight
20 Oct - 16:57:58 10° NNW 17:07:10 73° NE 17:16:30 10° SE daylight
20 Oct - 19:05:19 10° W 19:12:02 22° SW 19:18:56 10° S visible
21 Oct - 03:44:42 10° SSW 03:53:31 33° SE 04:02:15 10° ENE visible
21 Oct - 05:48:36 10° SW 05:58:28 56° NW 06:08:10 10° NNE daylight
21 Oct - 14:37:15 10° NNE 14:38:59 11° NE 14:40:44 10° NE daylight
21 Oct - 16:35:08 10° NNW 16:44:17 67° NE 16:53:32 10° SE daylight
21 Oct - 18:42:01 10° W 18:49:05 24° SW 18:56:20 10° S visible
22 Oct - 03:21:59 10° S 03:30:33 30° SE 03:39:01 10° ENE visible
22 Oct - 05:25:32 10° SW 05:35:31 61° NW 05:45:21 10° NNE daylight
22 Oct - 16:12:19 10° NNW 16:21:24 62° NE 16:30:33 10° SE daylight
22 Oct - 18:18:46 10° WNW 18:26:09 27° SW 18:33:43 10° S visible
23 Oct - 02:59:19 10° S 03:07:34 28° SE 03:15:45 10° ENE visible
23 Oct - 05:02:30 10° SW 05:12:34 66° NW 05:22:31 10° NNE visible
23 Oct - 07:15:06 10° WNW 07:18:06 12° NW 07:21:04 10° NNW daylight
23 Oct - 15:49:31 10° NNW 15:58:30 56° NE 16:07:33 10° SE daylight
23 Oct - 17:55:34 10° WNW 18:03:13 29° SW 18:11:03 10° S visible
24 Oct - 02:36:41 10° S 02:44:36 25° SE 02:52:26 10° E visible
24 Oct - 04:39:30 10° SW 04:49:39 72° NW 04:59:39 10° NNE visible
24 Oct - 06:50:52 10° WNW 06:55:03 13° NW 06:59:14 10° NNW daylight
24 Oct - 15:26:44 10° NNW 15:35:37 52° NE 15:44:31 10° SE daylight
24 Oct - 17:32:23 10° WNW 17:40:17 32° SW 17:48:23 10° SSE daylight
25 Oct - 02:14:05 10° S 02:21:36 23° SE 02:29:05 10° E visible
25 Oct - 04:16:32 10° SW 04:26:42 77° NW 04:36:47 10° NE visible
25 Oct - 06:26:57 10° WNW 06:32:02 15° NW 06:37:06 10° NNW daylight
25 Oct - 15:03:58 10° NNW 15:12:44 47° NE 15:21:29 10° ESE daylight
25 Oct - 17:09:14 10° WNW 17:17:23 35° SW 17:25:41 10° SSE daylight
26 Oct - 01:51:32 10° S 01:58:37 21° SE 02:05:41 10° E visible
26 Oct - 03:53:34 10° SW 04:03:46 83° NW 04:13:53 10° NE visible
26 Oct - 06:03:14 10° W 06:09:01 17° NW 06:14:48 10° N daylight
26 Oct - 14:41:13 10° NNW 14:49:50 43° NE 14:58:25 10° ESE daylight
26 Oct - 16:46:08 10° WNW 16:54:29 39° SW 17:02:57 10° SSE daylight
